Cloud_Cover
100 100 97 93 100 100 100 100 100 100 100 100 100 100 100 100 100 100 100 100 100 100 100 100 100 100 97 100 100 100 63 7
100 100 100 100 100 100 100 100 100 100 100 100 100 100 100 100 100 100 100 100 100 100 100 100 100 100 100 99 69 5 17 4
100 100 100 100 100 100 100 100 100 100 100 100 100 100 100 100 100 100 100 100 100 99 72 61 89 84 96 12 4 0 5 26
100 100 100 100 100 100 100 100 100 100 100 100 100 100 100 100 100 100 100 99 75 76 50 53 35 3 1 0 1 5 66 64
74 18 5 18 86 54 100 100 100 100 56 53 9 58 25 59 90 69 70 52 47 18 1 2 30 37 84 69 89 54 5 5
100 93 50 29 10 38 5 47 99 99 79 16 16 23 18 25 5 5 4 0 1 5 7 7 7 40 28 100 32 6 5 91
77 91 100 100 68 99 50 87 100 100 100 100 73 39 37 9 5 2 0 5 6 22 91 6 64 84 100 74 68 71 18 50
5 6 75 100 89 49 85 100 100 100 96 99 71 55 20 5 5 5 5 60 98 100 62 44 100 88 99 100 100 91 63 62
7 10 88 100 100 100 100 100 100 100 99 46 57 92 30 7 13 6 72 89 100 100 100 100 100 100 100 96 100 100 100 93
0 41 4 6 96 100 100 99 92 34 13 47 2 2 4 26 42 43 100 100 100 100 100 100 100 100 100 97 100 95 100 80
2 14 18 37 83 85 18 5 3 0 0 0 0 0 4 31 75 100 100 100 100 100 100 100 100 100 100 100 95 99 98 92
0 4 2 0 7 7 8 0 0 0 0 0 5 5 10 24 100 100 100 91 87 42 61 100 100 100 100 98 100 100 100 100
0 0 0 0 0 0 0 0 0 0 0 3 4 15 9 48 100 14 64 57 74 58 100 100 100 97 98 100 100 100 100 33
0 3 0 0 0 0 0 0 5 5 24 63 15 38 51 80 93 98 100 99 92 98 100 100 100 100 88 100 94 80 28 79
0 0 2 5 5 26 23 8 33 59 50 6 37 51 52 90 100 100 100 96 100 100 100 100 100 100 100 97 64 90 82 45
5 5 75 37 5 8 23 96 100 69 17 87 82 63 100 100 100 94 100 97 89 100 100 100 100 100 95 72 100 78 15 45
2 5 0 2 5 50 100 98 11 61 66 5 46 85 100 100 100 100 100 100 100 100 100 100 100 100 100 90 86 22 64 63
4 5 5 5 5 5 5 22 99 81 8 64 21 93 100 100 100 100 100 100 100 100 100 100 100 100 100 98 19 5 5 77
1 5 5 3 5 5 5 2 4 5 5 36 94 95 100 100 100 100 100 100 100 100 100 100 100 100 99 21 72 58 15 69